Weather reports worldwide

Advertisment
Orense, Spain (8048): temperature & dewpoint: 11.08.2019 15:00:00 - 17.08.2019 15:00:00 (CEST)Orense, Spain (8048): wind speed: 11.08.2019 15:00:00 - 17.08.2019 15:00:00 (CEST)Orense, Spain (8048): wind direction: 11.08.2019 15:00:00 - 17.08.2019 15:00:00 (CEST)Orense, Spain (8048): reduced air pressure: 11.08.2019 15:00:00 - 17.08.2019 15:00:00 (CEST)Orense, Spain (8048): visibility: 11.08.2019 15:00:00 - 17.08.2019 15:00:00 (CEST)Orense, Spain (8048): precipitation: 11.08.2019 15:00:00 - 17.08.2019 15:00:00 (CEST)
Date & Time tt [°C] td [°C] ff [km/h] ff [kn] dd ppp [hPa] vv [km] rr [mm]
17.08.2019 15:00:00 28,7 16,3 5 3 NE 1013,9 20 0,0
17.08.2019 14:00:00 28,3 15,6 5 3 WNW 1014,6 20 -
17.08.2019 13:00:00 26,0 15,4 4 2 W 1015,6 20 0,0
17.08.2019 12:00:00 24,2 15,1 4 2 ESE 1016,4 20 0,0
17.08.2019 11:00:00 21,4 15,2 4 2 WNW 1017,2 20 -
17.08.2019 10:00:00 18,5 14,6 2 1 SW 1017,8 20 0,0
17.08.2019 09:00:00 15,3 13,3 2 1 W 1017,9 20 0,0
17.08.2019 08:00:00 15,0 12,9 2 1 SSE 1018,1 20 -
17.08.2019 07:00:00 15,1 13,1 0 0 N 1017,9 20 0,0
17.08.2019 06:00:00 15,6 13,3 4 2 W 1017,6 20 0,0
17.08.2019 05:00:00 16,2 13,5 2 1 SSE 1017,6 20 -
17.08.2019 04:00:00 17,1 14,2 4 2 SSE 1017,6 20 0,0
17.08.2019 03:00:00 18,2 14,7 4 2 WSW 1017,9 20 0,0
17.08.2019 02:00:00 19,1 15,2 4 2 ESE 1018,2 20 -
17.08.2019 01:00:00 20,2 15,4 2 1 E 1018,3 20 0,0
17.08.2019 00:00:00 21,2 14,4 2 1 ESE 1018,4 20 0,0
16.08.2019 23:00:00 22,7 14,5 5 3 SSW 1017,8 20 -
16.08.2019 22:00:00 24,4 14,8 5 3 W 1017,1 20 0,0
16.08.2019 21:00:00 27,1 14,5 8 4 W 1016,0 20 0,0
16.08.2019 20:00:00 29,4 14,8 9 5 W 1015,3 20 -
16.08.2019 19:00:00 31,3 14,0 9 5 W 1015,2 20 0,0
16.08.2019 18:00:00 32,4 13,6 9 5 W 1015,2 20 0,0
16.08.2019 17:00:00 32,5 14,1 8 4 W 1015,2 20 -
16.08.2019 16:00:00 31,8 13,1 5 3 NW 1015,7 20 0,0
16.08.2019 15:00:00 30,9 13,2 9 5 W 1016,2 20 0,0
16.08.2019 14:00:00 28,9 5,7 4 2 NNE 1016,7 20 -
16.08.2019 13:00:00 25,9 16,2 4 2 E 1017,6 20 0,0
16.08.2019 12:00:00 23,2 15,8 4 2 NW 1018,2 20 0,0
16.08.2019 11:00:00 20,2 15,2 4 2 W 1018,7 20 -
16.08.2019 10:00:00 16,9 14,2 2 1 ENE 1019,6 9 0,0
16.08.2019 09:00:00 14,6 12,8 2 1 W 1019,6 19 0,0
16.08.2019 08:00:00 14,4 12,6 2 1 SSE 1019,5 17 -
16.08.2019 07:00:00 14,9 12,8 2 1 S 1019,3 19 0,0
16.08.2019 06:00:00 15,8 13,5 4 2 WSW 1019,0 20 0,0
16.08.2019 05:00:00 16,8 14,1 2 1 WSW 1019,4 20 -
16.08.2019 04:00:00 17,8 14,7 2 1 SE 1019,3 20 0,0
16.08.2019 03:00:00 19,2 15,1 2 1 WSW 1019,5 20 0,0
16.08.2019 02:00:00 20,9 15,7 4 2 W 1019,3 20 -
16.08.2019 01:00:00 22,3 16,1 2 1 WNW 1019,0 20 0,0
16.08.2019 00:00:00 23,7 16,5 2 1 SSE 1019,0 20 0,0
15.08.2019 23:00:00 24,9 16,6 4 2 SSW 1018,9 20 -
15.08.2019 22:00:00 27,0 16,9 2 1 E 1018,1 20 0,0
15.08.2019 21:00:00 29,7 15,8 4 2 NNE 1017,4 20 0,0
15.08.2019 20:00:00 31,4 15,4 5 3 NNW 1016,8 20 -
15.08.2019 19:00:00 32,2 15,7 5 3 NW 1017,0 20 0,0
15.08.2019 18:00:00 32,5 15,9 5 3 W 1017,0 20 0,0
15.08.2019 17:00:00 31,9 15,4 8 4 NE 1017,5 20 -
15.08.2019 16:00:00 31,6 15,5 4 2 WNW 1018,1 20 0,0
15.08.2019 15:00:00 30,0 15,7 5 3 W 1018,7 20 0,0
15.08.2019 14:00:00 27,9 14,9 5 3 WNW 1019,5 20 -
15.08.2019 13:00:00 25,3 15,0 5 3 W 1020,6 20 0,0
15.08.2019 12:00:00 22,4 15,0 5 3 WNW 1021,3 20 0,0
15.08.2019 11:00:00 19,9 15,1 4 2 E 1021,7 19 -
15.08.2019 10:00:00 17,1 14,6 2 1 SSW 1022,0 20 0,0
15.08.2019 09:00:00 14,6 13,3 2 1 S 1022,3 20 0,0
15.08.2019 08:00:00 14,3 13,0 4 2 W 1022,4 20 -
15.08.2019 07:00:00 14,5 13,0 2 1 ESE 1021,8 19 0,0
15.08.2019 06:00:00 15,0 13,4 2 1 SSE 1021,6 20 0,0
15.08.2019 05:00:00 15,5 13,7 2 1 WSW 1021,9 20 -
15.08.2019 04:00:00 16,1 14,1 4 2 W 1021,9 20 0,0
15.08.2019 03:00:00 17,0 14,6 2 1 SE 1022,0 19 0,0
15.08.2019 02:00:00 17,9 14,8 2 1 WSW 1021,9 20 -
15.08.2019 01:00:00 18,9 15,2 4 2 W 1021,2 20 0,0
15.08.2019 00:00:00 20,4 15,8 4 2 W 1020,9 20 0,0
14.08.2019 23:00:00 22,4 16,2 2 1 WSW 1020,8 20 -
14.08.2019 22:00:00 23,9 16,4 8 4 W 1020,2 20 0,0
14.08.2019 21:00:00 25,7 16,8 4 2 W 1019,6 20 0,0
14.08.2019 20:00:00 27,5 17,4 8 4 W 1019,2 20 -
14.08.2019 19:00:00 28,4 18,2 8 4 W 1019,1 20 0,0
14.08.2019 18:00:00 27,5 17,9 5 3 WNW 1019,1 20 0,0
14.08.2019 17:00:00 27,5 17,4 4 2 NW 1019,4 20 -
14.08.2019 16:00:00 27,7 17,2 5 3 W 1019,5 20 0,0
14.08.2019 15:00:00 27,8 16,4 4 2 SW 1019,9 20 0,0
14.08.2019 14:00:00 26,8 15,8 4 2 N 1020,4 20 -
14.08.2019 13:00:00 25,7 14,8 5 3 SSW 1020,9 20 0,0
14.08.2019 12:00:00 22,7 14,5 2 1 NNE 1021,6 20 0,0
14.08.2019 11:00:00 19,7 13,8 2 1 ENE 1021,3 20 -
14.08.2019 10:00:00 16,7 12,6 2 1 S 1021,8 20 0,0
14.08.2019 09:00:00 13,9 11,6 2 1 SSW 1021,8 19 0,0
14.08.2019 08:00:00 13,6 11,3 2 1 S 1021,8 20 -
14.08.2019 07:00:00 13,7 11,4 4 2 S 1021,5 20 0,0
14.08.2019 06:00:00 14,2 11,5 2 1 SSE 1021,1 20 0,0
14.08.2019 05:00:00 15,0 11,8 2 1 SSW 1021,7 20 -
14.08.2019 04:00:00 15,8 12,2 2 1 WSW 1021,5 20 0,0
14.08.2019 03:00:00 16,6 12,1 2 1 ESE 1020,8 20 0,0
14.08.2019 02:00:00 17,7 12,4 4 2 E 1020,9 20 -
14.08.2019 01:00:00 19,0 12,5 2 1 E 1020,9 19 0,0
14.08.2019 00:00:00 20,3 12,3 4 2 E 1020,5 20 0,0
13.08.2019 23:00:00 22,2 12,2 4 2 SW 1020,2 20 -
13.08.2019 22:00:00 23,8 11,1 4 2 W 1019,5 20 0,0
13.08.2019 21:00:00 26,3 12,0 5 3 SW 1018,8 20 0,0
13.08.2019 20:00:00 28,8 13,1 8 4 W 1017,9 20 -
13.08.2019 19:00:00 29,1 9,2 8 4 N 1018,0 20 0,0
13.08.2019 18:00:00 29,7 5,0 4 2 NNE 1018,2 20 0,0
13.08.2019 17:00:00 29,1 9,2 8 4 W 1018,6 20 -
13.08.2019 16:00:00 27,8 9,1 4 2 NW 1019,3 20 0,0
13.08.2019 15:00:00 26,4 10,1 5 3 NW 1020,1 20 0,0
13.08.2019 14:00:00 25,1 9,4 5 3 WNW 1020,4 20 -
13.08.2019 13:00:00 22,7 11,1 8 4 W 1021,3 20 0,0
13.08.2019 12:00:00 19,2 10,7 4 2 W 1022,0 20 0,0
13.08.2019 11:00:00 15,6 9,7 4 2 SW 1022,7 20 -
13.08.2019 10:00:00 12,7 9,0 4 2 SSE 1023,3 20 0,0
13.08.2019 09:00:00 10,1 8,0 2 1 S 1023,4 20 0,0
13.08.2019 08:00:00 9,4 7,3 2 1 SW 1023,5 20 -
13.08.2019 07:00:00 9,8 7,2 2 1 S 1023,2 20 0,0
13.08.2019 06:00:00 10,7 7,9 2 1 SW 1022,7 20 0,0
13.08.2019 05:00:00 11,7 8,4 2 1 W 1022,7 20 -
13.08.2019 04:00:00 13,1 8,8 4 2 W 1022,9 20 0,0
13.08.2019 03:00:00 14,5 9,1 2 1 W 1023,1 20 0,0
13.08.2019 02:00:00 15,1 9,0 4 2 WSW 1023,5 20 -
13.08.2019 01:00:00 16,4 9,6 4 2 ENE 1023,2 20 0,0
13.08.2019 00:00:00 17,6 9,2 4 2 NNW 1023,3 20 0,0
12.08.2019 23:00:00 18,8 9,8 4 2 N 1023,1 20 -
12.08.2019 22:00:00 20,5 10,0 4 2 N 1022,1 20 0,0
12.08.2019 21:00:00 22,1 8,9 5 3 NW 1021,2 20 0,0
12.08.2019 20:00:00 22,7 8,8 4 2 NNE 1020,8 20 -
12.08.2019 19:00:00 23,0 6,7 4 2 N 1020,9 20 0,0
12.08.2019 18:00:00 22,1 6,7 5 3 NNE 1020,8 20 0,0
12.08.2019 17:00:00 23,0 7,1 5 3 NNE 1021,4 20 -
12.08.2019 16:00:00 23,7 6,9 8 4 ENE 1022,2 19 0,0
12.08.2019 15:00:00 22,7 8,4 5 3 NE 1022,6 20 0,0
12.08.2019 14:00:00 21,5 9,4 4 2 N 1023,1 20 -
12.08.2019 13:00:00 20,4 9,6 5 3 NW 1023,9 20 0,0
12.08.2019 12:00:00 18,6 10,4 5 3 NW 1024,1 20 0,0
12.08.2019 11:00:00 15,7 10,7 5 3 W 1024,6 20 -
12.08.2019 10:00:00 13,3 10,3 4 2 W 1025,0 20 0,0
12.08.2019 09:00:00 11,0 9,4 2 1 WSW 1024,5 20 0,0
12.08.2019 08:00:00 9,8 8,1 2 1 WSW 1024,2 20 -
12.08.2019 07:00:00 10,0 8,4 2 1 S 1023,7 20 0,0
12.08.2019 06:00:00 10,6 8,7 2 1 WSW 1023,5 20 0,0
12.08.2019 05:00:00 11,4 9,3 2 1 SE 1023,0 20 -
12.08.2019 04:00:00 12,3 9,7 4 2 W 1023,1 20 0,0
12.08.2019 03:00:00 13,2 10,0 4 2 W 1023,2 20 0,0
12.08.2019 02:00:00 13,9 10,5 2 1 WSW 1023,4 20 -
12.08.2019 01:00:00 15,2 10,8 2 1 WSW 1023,2 20 0,0
12.08.2019 00:00:00 16,6 10,7 4 2 W 1023,0 20 0,0
11.08.2019 23:00:00 17,2 10,8 4 2 WSW 1022,6 20 -
11.08.2019 22:00:00 18,4 10,5 4 2 SW 1021,7 20 0,0
11.08.2019 21:00:00 20,1 10,2 5 3 W 1020,7 20 0,0
11.08.2019 20:00:00 21,2 10,4 5 3 NW 1020,1 20 -
11.08.2019 19:00:00 21,9 10,7 4 2 NNE 1019,9 20 0,0
11.08.2019 18:00:00 24,5 10,7 13 7 W 1019,2 20 0,0
11.08.2019 17:00:00 24,7 9,4 11 6 W 1019,0 20 -
11.08.2019 16:00:00 22,6 10,1 9 5 WNW 1019,3 20 0,0
11.08.2019 15:00:00 23,1 10,5 5 3 WSW 1019,3 20 0,0

tt = temperature
td = dewpoint
ff = wind speed
dd = wind direction
ppp = reduced air pressure
vv = visibility
rr = precipitation

Next stations